Regional Weather Roundup
Issued by NWS

Home | Current Version | Previous Version | Graphics & Text | Print | Product List | Glossary On
Versions: 1 2 3 4 5 6 7 8 9 10 11 12 13 14 15 16 17 18 19 20 21 22 23 24 25 26 27 28 29 30 31 32 33 34 35 36 37 38 39 40 41 42 43 44 45 46 47 48 49 50
000
ASUS43 KLOT 240803
RWRIL

ILLINOIS REGIONAL WEATHER ROUNDUP
NATIONAL WEATHER SERVICE CHICAGO/ROMEOVILLE IL
300 AM CDT THU MAY 24 2018

NOTE: "FAIR" INDICATES FEW OR NO CLOUDS BELOW 12,000 FEET WITH NO
SIGNIFICANT WEATHER AND/OR OBSTRUCTIONS TO VISIBILITY.

* THESE STATIONS ARE NOT UNDER NWS QUALITY CONTROL. THEY ALSO MAY NOT
  REPORT WEATHER SUCH AS PRECIPITATION OR FOG.

ILZ001-002-007-009-015-016-024-240900-
NORTHWEST ILLINOIS

CITY           SKY/WX    TMP DP  RH WIND       PRES   REMARKS
MOLINE         FAIR      62  58  86 CALM      30.12S
STERLING*      FAIR      61  58  90 E6        30.15S
SAVANNA*       FAIR      63  58  83 CALM      30.14S
$$

ILZ003-004-008-010-011-017-018-240900-
NORTH CENTRAL ILLINOIS

CITY           SKY/WX    TMP DP  RH WIND       PRES   REMARKS
ROCKFORD       FAIR      61  51  70 SE3       30.17S
FREEPORT*      FAIR      60  56  88 E5        30.17S
ROCHELLE*      FAIR      60  53  77 SE8       30.16F
DE KALB*       FAIR      58  51  78 E3        30.18S
PERU*          FAIR      63  56  78 E3        30.15F
$$

ILZ005-006-012>014-019>023-240900-
NORTHEAST ILLINOIS

CITY           SKY/WX    TMP DP  RH WIND       PRES   REMARKS
CHICAGO-OHARE  FAIR      60  52  74 CALM      30.16S
CHICAGO-MIDWAY FAIR      60  53  77 CALM      30.16S
AURORA         FAIR      58  53  84 NE3       30.16S
LANSING*       FAIR      55  55 100 CALM      30.17S
JOLIET*        FAIR      58  55  90 CALM      30.17R
WAUKEGAN       FAIR      51  51 100 CALM      30.16S FOG
DUPAGE AIRPORT FAIR      59  52  77 CALM      30.16S
KANKAKEE*      FAIR      60  54  80 CALM      30.17S
WHEELING       FAIR      57  54  89 CALM      30.18S
MORRIS*        FAIR      59  52  78 CALM      30.16S
ROMEOVILLE*    FAIR      58  53  83 CALM      30.17S
NORTHERLY ISL    N/A     56  51  84 NW1         N/A
$$

LMZ740>746-240900-
SOUTHERN LAKE MICHIGAN

STATION/POSITION SKY/WX   TEMP    WIND        PRES    VSBY  WAVE
                          AIR SEA DIR/SP/G                  HT/PER
                          (F)     (DEG/KT/KT) (MB)    (MI)  (FT/S)
SOUTHERN BUOY              50 39  140/  8/  8 1022.1F         0
WILMETTE HARBOR            53 52   CALM  /  2   N/A           0
HARRISON CRIB              58     100/  2/  3   N/A
BURNHAM HARBOR             56     350/  1/  3   N/A
CALUMET HARBOR             56      10/  2/  2 1020.9
BURNS HARBOR               58        CALM     1022.0F
MICHIGAN CITY              60     100/  3/  4   N/A
MICHIGAN CITY 6N           57 56   80/  4/  6   N/A           0
ST. JOSEPH                 59 55  110/  4/  4 1021.9F         0
$$

ILZ025>027-034>036-040-047-049-050-058-095>099-240900-
WEST-CENTRAL ILLINOIS

CITY           SKY/WX    TMP DP  RH WIND       PRES   REMARKS
QUINCY         CLEAR     71  60  68 E6        30.11S
GALESBURG*     FAIR      67  56  67 E5        30.14S
MACOMB*        CLEAR     63  59  88 CALM      30.14S
JACKSONVILLE*  CLEAR     63  59  87 E5        30.12F
PITTSFIELD*    CLEAR     66  65  97 CALM      30.13R
$$

ILZ028>032-037-038-041>044-048-051>054-059>061-240900-
CENTRAL ILLINOIS

CITY           SKY/WX    TMP DP  RH WIND       PRES   REMARKS
PONTIAC        FAIR      63  58  85 E6        30.16S
BLOOMINGTON    FAIR      66  51  58 SE10      30.16S
DECATUR        FAIR      60  52  74 E6        30.14S
PEORIA         FAIR      69  54  58 E6        30.13F
LACON*         FAIR      63  54  73 CALM      30.13S
LINCOLN*       FAIR      66  54  63 CALM      30.14S
SPRINGFIELD    FAIR      66  57  72 E6        30.13S
TAYLORVILLE    FAIR      65  58  76 E6        30.13S
$$

ILZ033-039-045-046-055>057-062-063-240900-
EAST-CENTRAL ILLINOIS

CITY           SKY/WX    TMP DP  RH WIND       PRES   REMARKS
CHAMPAIGN      FAIR      62  52  69 E8        30.15S
DANVILLE*      FAIR      61  53  74 E5        30.14S
RANTOUL*       FAIR      64  55  71 E3        30.16S
MATTOON        FAIR      64  58  80 SE3       30.14R
PARIS*         FAIR      63  55  75 E5        30.16S
$$

ILZ079-100>102-240900-
SOUTHWEST ILLINOIS

CITY           SKY/WX    TMP DP  RH WIND       PRES   REMARKS
ALTON          CLEAR     62  61  94 CALM      30.11F
BELLEVILLE     CLEAR     65  64  95 CALM      30.10S
CAHOKIA*       CLEAR     66  62  87 CALM      30.10F
SPARTA*        PTCLDY    66  65  95 CALM      30.12S
$$

ILZ064>066-069>071-074>076-080>082-084>086-088>090-092>094-240900-
SOUTH-CENTRAL ILLINOIS

CITY           SKY/WX    TMP DP  RH WIND       PRES   REMARKS
CARBONDALE     FAIR      64  63  96 CALM      30.11R
CAIRO*         FAIR      68  67  97 CALM      30.10S
EFFINGHAM*     FAIR      62  60  94 CALM      30.15S
MARION         FAIR      63  62  98 CALM      30.12S
MT. VERNON     FAIR      57  56  96 CALM      30.12S FOG
CENTRALIA*     CLEAR     65  62  89 CALM      30.11S
SALEM*         FAIR      68  60  75 CALM      30.13S
METROPOLIS*    FAIR      67  65  95 CALM      30.11R
$$

ILZ067-068-072-073-078-083-087-091-240900-
SOUTHEAST ILLINOIS

CITY           SKY/WX    TMP DP  RH WIND       PRES   REMARKS
LAWRENCEVILLE  FAIR      66  59  78 NE5       30.14R
FLORA*         FAIR      64  60  87 CALM      30.13S
FAIRFIELD*     FAIR      65  60  83 CALM      30.12R
HARRISBURG*    FAIR      65  63  93 CALM      30.12R
ROBINSON*      FAIR      60  59  99 CALM      30.15S
CARMI*         FAIR      64  61  91 CALM      30.11S
$$

ABBREVIATIONS USED IN REMARKS
   TC - TEMPERATURE IN CELSIUS
  WCI - WIND CHILL INDEX
   HX - HEAT INDEX
  VSB - VISIBILITY
$$





USA.gov is the U.S. government's official web portal to all federal, state and local government web resources and services.